Time,TemperatureF,DewpointF,PressureIn,WindDirection,WindDirectionDegrees,WindSpeedMPH,WindSpeedGustMPH,Humidity,HourlyPrecipIn,Conditions,Clouds,dailyrainin,SoftwareType,DateUTC
2013-01-23 00:00:00,11.5,-8.2,30.03,West,268,6.0,13.0,40,0.00,CLR,FEW,0.00,WeatherDisplay:10.37,2013-01-23 05:00:00,
2013-01-23 00:02:00,11.5,-7.7,30.03,West,271,11.5,11.5,41,0.00,CLR,FEW,0.00,WeatherDisplay:10.37,2013-01-23 05:02:00,
2013-01-23 00:03:00,11.6,-7.6,30.03,WSW,255,9.2,9.2,41,0.00,CLR,FEW,0.00,WeatherDisplay:10.37,2013-01-23 05:03:00,
2013-01-23 00:08:00,11.5,-8.2,30.03,WNW,283,10.4,10.4,40,0.00,CLR,FEW,0.00,WeatherDisplay:10.37,2013-01-23 05:08:00,
2013-01-23 00:13:00,11.4,-7.8,30.03,West,262,13.8,13.8,41,0.00,CLR,FEW,0.00,WeatherDisplay:10.37,2013-01-23 05:13:00,
2013-01-23 00:18:00,11.4,-8.8,30.03,WNW,294,10.4,10.4,39,0.00,CLR,FEW,0.00,WeatherDisplay:10.37,2013-01-23 05:18:00,
2013-01-23 00:23:00,11.3,-8.9,30.02,West,278,12.7,12.7,39,0.00,CLR,FEW,0.00,WeatherDisplay:10.37,2013-01-23 05:23:00,
2013-01-23 00:28:00,11.1,-8.6,30.03,West,279,11.5,11.5,40,0.00,CLR,FEW,0.00,WeatherDisplay:10.37,2013-01-23 05:28:00,
2013-01-23 00:33:00,11.2,-8.5,30.03,WSW,249,12.7,12.7,40,0.00,CLR,FEW,0.00,WeatherDisplay:10.37,2013-01-23 05:33:00,
2013-01-23 00:38:00,11.2,-8.5,30.03,WNW,294,12.7,12.7,40,0.00,CLR,FEW,0.00,WeatherDisplay:10.37,2013-01-23 05:38:00,
2013-01-23 00:43:00,11.1,-8.6,30.03,WSW,255,13.8,13.8,40,0.00,CLR,FEW,0.00,WeatherDisplay:10.37,2013-01-23 05:43:00,
2013-01-23 00:48:00,11.1,-8.6,30.03,West,272,11.5,11.5,40,0.00,CLR,FEW,0.00,WeatherDisplay:10.37,2013-01-23 05:48:00,
2013-01-23 00:53:00,11.2,-8.0,30.03,WSW,246,11.5,11.5,41,0.00,CLR,FEW,0.00,WeatherDisplay:10.37,2013-01-23 05:53:00,
2013-01-23 00:58:00,11.1,-8.1,30.03,West,262,8.1,8.1,41,0.00,CLR,FEW,0.00,WeatherDisplay:10.37,2013-01-23 05:58:00,
2013-01-23 01:03:00,11.1,-7.6,30.03,West,279,6.9,6.9,42,0.00,CLR,FEW,0.00,WeatherDisplay:10.37,2013-01-23 06:03:00,
2013-01-23 01:08:00,11.0,-7.7,30.03,West,273,8.1,8.1,42,0.00,CLR,FEW,0.00,WeatherDisplay:10.37,2013-01-23 06:08:00,
2013-01-23 01:13:00,10.9,-7.7,30.03,West,269,6.9,6.9,42,0.00,CLR,FEW,0.00,WeatherDisplay:10.37,2013-01-23 06:13:00,
2013-01-23 01:18:00,10.8,-7.8,30.04,WNW,287,5.8,5.8,42,0.00,CLR,FEW,0.00,WeatherDisplay:10.37,2013-01-23 06:18:00,
2013-01-23 01:23:00,11.0,-7.2,30.04,WSW,255,13.0,13.0,43,0.00,CLR,FEW,0.00,WeatherDisplay:10.37,2013-01-23 06:23:00,
2013-01-23 01:28:00,10.8,-7.4,30.04,West,261,12.7,12.7,43,0.00,CLR,FEW,0.00,WeatherDisplay:10.37,2013-01-23 06:28:00,
2013-01-23 01:33:00,10.9,-6.8,30.04,West,276,9.2,9.2,44,0.00,CLR,FEW,0.00,WeatherDisplay:10.37,2013-01-23 06:33:00,
2013-01-23 01:38:00,10.9,-6.8,30.05,West,269,10.4,10.4,44,0.00,CLR,FEW,0.00,WeatherDisplay:10.37,2013-01-23 06:38:00,
2013-01-23 01:43:00,10.8,-6.9,30.04,WNW,283,9.2,9.2,44,0.00,CLR,FEW,0.00,WeatherDisplay:10.37,2013-01-23 06:43:00,
2013-01-23 01:48:00,10.9,-6.8,30.05,WSW,255,8.1,8.1,44,0.00,CLR,FEW,0.00,WeatherDisplay:10.37,2013-01-23 06:48:00,
2013-01-23 01:53:00,10.8,-6.4,30.05,WNW,282,11.5,11.5,45,0.00,CLR,FEW,0.00,WeatherDisplay:10.37,2013-01-23 06:53:00,
2013-01-23 01:58:00,10.8,-6.4,30.05,West,270,10.4,10.4,45,0.00,CLR,FEW,0.00,WeatherDisplay:10.37,2013-01-23 06:58:00,
2013-01-23 02:03:00,10.7,-6.5,30.05,WSW,257,10.4,10.4,45,0.00,CLR,FEW,0.00,WeatherDisplay:10.37,2013-01-23 07:03:00,
2013-01-23 02:08:00,10.6,-6.6,30.05,WSW,258,8.1,8.1,45,0.00,CLR,FEW,0.00,WeatherDisplay:10.37,2013-01-23 07:08:00,
2013-01-23 02:13:00,10.8,-6.4,30.06,WSW,256,5.8,5.8,45,0.00,CLR,FEW,0.00,WeatherDisplay:10.37,2013-01-23 07:13:00,
2013-01-23 02:18:00,10.7,-6.1,30.06,WSW,250,8.1,8.1,46,0.00,CLR,FEW,0.00,WeatherDisplay:10.37,2013-01-23 07:18:00,
2013-01-23 02:23:00,10.6,-6.1,30.04,WSW,245,12.7,12.7,46,0.00,CLR,FEW,0.00,WeatherDisplay:10.37,2013-01-23 07:23:00,
2013-01-23 02:28:00,10.5,-6.2,30.06,WSW,247,9.2,9.2,46,0.00,CLR,FEW,0.00,WeatherDisplay:10.37,2013-01-23 07:28:00,
2013-01-23 02:33:00,10.6,-5.7,30.06,WSW,247,12.7,12.7,47,0.00,CLR,FEW,0.00,WeatherDisplay:10.37,2013-01-23 07:33:00,
2013-01-23 02:38:00,10.5,-6.2,30.07,West,262,11.5,11.5,46,0.00,CLR,FEW,0.00,WeatherDisplay:10.37,2013-01-23 07:38:00,
2013-01-23 02:43:00,10.5,-5.8,30.07,WSW,241,6.9,6.9,47,0.00,CLR,FEW,0.00,WeatherDisplay:10.37,2013-01-23 07:43:00,
2013-01-23 02:48:00,10.4,-5.9,30.07,West,263,10.4,10.4,47,0.00,CLR,FEW,0.00,WeatherDisplay:10.37,2013-01-23 07:48:00,
2013-01-23 02:53:00,10.4,-6.3,30.07,WSW,243,11.5,11.5,46,0.00,CLR,FEW,0.00,WeatherDisplay:10.37,2013-01-23 07:53:00,
2013-01-23 02:58:00,10.3,-6.0,30.07,WSW,255,11.5,11.5,47,0.00,CLR,FEW,0.00,WeatherDisplay:10.37,2013-01-23 07:58:00,
2013-01-23 03:03:00,10.3,-6.0,30.07,WSW,254,11.5,11.5,47,0.00,CLR,FEW,0.00,WeatherDisplay:10.37,2013-01-23 08:03:00,
2013-01-23 03:08:00,10.2,-6.1,30.07,SW,230,11.5,11.5,47,0.00,CLR,FEW,0.00,WeatherDisplay:10.37,2013-01-23 08:08:00,
2013-01-23 03:13:00,10.2,-6.1,30.07,WSW,258,10.0,10.0,47,0.00,CLR,FEW,0.00,WeatherDisplay:10.37,2013-01-23 08:13:00,
2013-01-23 03:18:00,10.3,-6.0,30.05,West,261,5.8,5.8,47,0.00,CLR,FEW,0.00,WeatherDisplay:10.37,2013-01-23 08:18:00,
2013-01-23 03:23:00,10.2,-6.1,30.07,WSW,253,5.8,6.1,47,0.00,CLR,FEW,0.00,WeatherDisplay:10.37,2013-01-23 08:23:00,
2013-01-23 03:28:00,10.2,-5.6,30.07,WSW,258,6.0,6.0,48,0.00,CLR,FEW,0.00,WeatherDisplay:10.37,2013-01-23 08:28:00,
2013-01-23 03:33:00,10.2,-5.6,30.07,WSW,248,10.0,10.0,48,0.00,CLR,FEW,0.00,WeatherDisplay:10.37,2013-01-23 08:33:00,
2013-01-23 03:38:00,10.0,-5.8,30.06,WSW,252,9.2,9.2,48,0.00,CLR,FEW,0.00,WeatherDisplay:10.37,2013-01-23 08:38:00,
2013-01-23 03:43:00,10.0,-5.8,30.07,WSW,251,11.5,11.5,48,0.00,CLR,FEW,0.00,WeatherDisplay:10.37,2013-01-23 08:43:00,
2013-01-23 03:48:00,10.0,-5.8,30.07,West,259,8.1,8.1,48,0.00,CLR,FEW,0.00,WeatherDisplay:10.37,2013-01-23 08:48:00,
2013-01-23 03:53:00,9.9,-5.9,30.06,WSW,238,10.0,10.0,48,0.00,CLR,FEW,0.00,WeatherDisplay:10.37,2013-01-23 08:53:00,
2013-01-23 03:58:00,9.9,-5.9,30.06,WSW,247,6.0,6.0,48,0.00,CLR,FEW,0.00,WeatherDisplay:10.37,2013-01-23 08:58:00,
2013-01-23 04:03:00,9.8,-6.0,30.06,WSW,243,11.5,11.5,48,0.00,CLR,FEW,0.00,WeatherDisplay:10.37,2013-01-23 09:03:00,
2013-01-23 04:08:00,9.7,-6.1,30.06,WSW,244,8.1,8.1,48,0.00,CLR,FEW,0.00,WeatherDisplay:10.37,2013-01-23 09:08:00,
2013-01-23 04:13:00,9.8,-6.0,30.06,WSW,254,5.8,5.8,48,0.00,CLR,FEW,0.00,WeatherDisplay:10.37,2013-01-23 09:13:00,
2013-01-23 04:18:00,9.9,-5.5,30.06,WSW,246,8.1,8.1,49,0.00,CLR,FEW,0.00,WeatherDisplay:10.37,2013-01-23 09:18:00,
2013-01-23 04:23:00,9.8,-5.6,30.07,WNW,283,6.9,6.9,49,0.00,CLR,FEW,0.00,WeatherDisplay:10.37,2013-01-23 09:23:00,
2013-01-23 04:29:00,9.7,-5.7,30.05,SW,235,14.0,14.0,49,0.00,CLR,FEW,0.00,WeatherDisplay:10.37,2013-01-23 09:29:00,
2013-01-23 04:34:00,9.7,-5.7,30.07,West,263,8.1,8.1,49,0.00,CLR,FEW,0.00,WeatherDisplay:10.37,2013-01-23 09:34:00,
2013-01-23 04:39:00,9.7,-5.7,30.08,West,265,10.4,10.4,49,0.00,CLR,FEW,0.00,WeatherDisplay:10.37,2013-01-23 09:39:00,
2013-01-23 04:44:00,9.6,-5.8,30.07,WSW,250,11.0,11.0,49,0.00,CLR,FEW,0.00,WeatherDisplay:10.37,2013-01-23 09:44:00,
2013-01-23 04:49:00,9.6,-5.8,30.07,WSW,246,5.8,5.8,49,0.00,CLR,FEW,0.00,WeatherDisplay:10.37,2013-01-23 09:49:00,
2013-01-23 04:54:00,9.8,-5.6,30.07,WNW,282,9.2,9.2,49,0.00,CLR,FEW,0.00,WeatherDisplay:10.37,2013-01-23 09:54:00,
2013-01-23 04:59:00,9.6,-5.8,30.07,West,266,4.6,4.6,49,0.00,CLR,FEW,0.00,WeatherDisplay:10.37,2013-01-23 09:59:00,
2013-01-23 05:04:00,9.6,-5.8,30.08,West,274,8.1,8.1,49,0.00,CLR,FEW,0.00,WeatherDisplay:10.37,2013-01-23 10:04:00,
2013-01-23 05:09:00,9.6,-5.8,30.08,West,281,6.0,6.0,49,0.00,CLR,FEW,0.00,WeatherDisplay:10.37,2013-01-23 10:09:00,
2013-01-23 05:14:00,9.6,-5.3,30.07,West,264,5.8,5.8,50,0.00,CLR,FEW,0.00,WeatherDisplay:10.37,2013-01-23 10:14:00,
2013-01-23 05:19:00,9.6,-5.3,30.08,WSW,244,7.0,7.0,50,0.00,CLR,FEW,0.00,WeatherDisplay:10.37,2013-01-23 10:19:00,
2013-01-23 05:24:00,9.7,-5.2,30.08,WSW,258,5.8,5.8,50,0.00,CLR,FEW,0.00,WeatherDisplay:10.37,2013-01-23 10:24:00,
2013-01-23 05:29:00,9.6,-5.8,30.08,West,269,11.5,11.5,49,0.00,CLR,FEW,0.00,WeatherDisplay:10.37,2013-01-23 10:29:00,
2013-01-23 05:34:00,9.6,-5.3,30.08,West,268,3.5,3.5,50,0.00,CLR,FEW,0.00,WeatherDisplay:10.37,2013-01-23 10:34:00,
2013-01-23 05:39:00,9.6,-5.3,30.08,West,260,5.8,5.8,50,0.00,CLR,FEW,0.00,WeatherDisplay:10.37,2013-01-23 10:39:00,
2013-01-23 05:44:00,9.6,-5.3,30.08,West,263,8.1,8.1,50,0.00,CLR,FEW,0.00,WeatherDisplay:10.37,2013-01-23 10:44:00,
2013-01-23 05:49:00,9.5,-5.4,30.08,West,279,8.1,8.1,50,0.00,CLR,FEW,0.00,WeatherDisplay:10.37,2013-01-23 10:49:00,
2013-01-23 05:54:00,9.6,-5.3,30.08,West,261,4.0,4.0,50,0.00,CLR,FEW,0.00,WeatherDisplay:10.37,2013-01-23 10:54:00,
2013-01-23 05:59:00,9.5,-5.4,30.08,WSW,258,9.2,9.2,50,0.00,CLR,FEW,0.00,WeatherDisplay:10.37,2013-01-23 10:59:00,
2013-01-23 06:04:00,9.3,-5.6,30.08,WSW,247,6.9,6.9,50,0.00,CLR,FEW,0.00,WeatherDisplay:10.37,2013-01-23 11:04:00,
2013-01-23 06:09:00,9.3,-5.6,30.08,West,268,8.1,8.1,50,0.00,CLR,FEW,0.00,WeatherDisplay:10.37,2013-01-23 11:09:00,
2013-01-23 06:14:00,9.3,-5.6,30.08,West,261,5.0,5.0,50,0.00,CLR,FEW,0.00,WeatherDisplay:10.37,2013-01-23 11:14:00,
2013-01-23 06:19:00,9.4,-5.1,30.08,WSW,246,11.5,11.5,51,0.00,CLR,FEW,0.00,WeatherDisplay:10.37,2013-01-23 11:19:00,
2013-01-23 06:24:00,9.3,-5.2,30.08,West,261,9.2,9.2,51,0.00,CLR,FEW,0.00,WeatherDisplay:10.37,2013-01-23 11:24:00,
2013-01-23 06:29:00,9.4,-5.1,30.08,WSW,258,7.0,7.0,51,0.00,CLR,FEW,0.00,WeatherDisplay:10.37,2013-01-23 11:29:00,
2013-01-23 06:35:00,9.2,-5.3,30.08,WSW,255,3.0,7.0,51,0.00,CLR,FEW,0.00,WeatherDisplay:10.37,2013-01-23 11:35:00,
2013-01-23 06:40:00,9.2,-5.3,30.07,WSW,258,10.4,10.4,51,0.00,CLR,FEW,0.00,WeatherDisplay:10.37,2013-01-23 11:40:00,
2013-01-23 06:45:00,9.1,-5.4,30.07,WSW,243,8.1,8.1,51,0.00,CLR,FEW,0.00,WeatherDisplay:10.37,2013-01-23 11:45:00,
2013-01-23 06:50:00,9.2,-4.9,30.07,West,268,7.0,7.0,52,0.00,CLR,FEW,0.00,WeatherDisplay:10.37,2013-01-23 11:50:00,
2013-01-23 06:55:00,9.1,-5.0,30.07,West,266,5.0,8.0,52,0.00,CLR,FEW,0.00,WeatherDisplay:10.37,2013-01-23 11:55:00,
2013-01-23 07:00:00,9.1,-5.0,30.07,West,264,3.0,7.0,52,0.00,CLR,FEW,0.00,WeatherDisplay:10.37,2013-01-23 12:00:00,
2013-01-23 07:05:00,9.2,-4.9,30.07,West,260,3.0,8.0,52,0.00,CLR,FEW,0.00,WeatherDisplay:10.37,2013-01-23 12:05:00,
2013-01-23 07:10:00,9.0,-5.1,30.07,WSW,258,11.5,11.5,52,0.00,CLR,FEW,0.00,WeatherDisplay:10.37,2013-01-23 12:10:00,
2013-01-23 07:15:00,9.0,-4.7,30.07,WSW,240,5.8,5.8,53,0.00,CLR,FEW,0.00,WeatherDisplay:10.37,2013-01-23 12:15:00,
2013-01-23 07:20:00,9.0,-4.7,30.07,WSW,245,8.1,8.1,53,0.00,CLR,FEW,0.00,WeatherDisplay:10.37,2013-01-23 12:20:00,
2013-01-23 07:25:00,8.9,-4.8,30.07,WSW,246,6.0,6.0,53,0.00,CLR,FEW,0.00,WeatherDisplay:10.37,2013-01-23 12:25:00,
2013-01-23 07:30:00,8.9,-4.8,30.06,WSW,240,8.0,8.0,53,0.00,CLR,FEW,0.00,WeatherDisplay:10.37,2013-01-23 12:30:00,
2013-01-23 07:35:00,8.8,-4.9,30.06,WSW,238,8.1,8.1,53,0.00,CLR,FEW,0.00,WeatherDisplay:10.37,2013-01-23 12:35:00,
2013-01-23 07:40:00,9.0,-4.3,30.06,West,263,6.9,6.9,54,0.00,CLR,FEW,0.00,WeatherDisplay:10.37,2013-01-23 12:40:00,
2013-01-23 07:45:00,9.0,-4.3,30.06,WSW,240,6.9,6.9,54,0.00,CLR,FEW,0.00,WeatherDisplay:10.37,2013-01-23 12:45:00,
2013-01-23 07:50:00,8.9,-4.4,30.06,WSW,249,7.0,10.0,54,0.00,CLR,FEW,0.00,WeatherDisplay:10.37,2013-01-23 12:50:00,
2013-01-23 07:55:00,8.9,-4.4,30.06,WSW,244,9.2,9.2,54,0.00,CLR,FEW,0.00,WeatherDisplay:10.37,2013-01-23 12:55:00,
2013-01-23 08:00:00,9.1,-4.2,30.06,West,259,9.0,9.0,54,0.00,CLR,FEW,0.00,WeatherDisplay:10.37,2013-01-23 13:00:00,
2013-01-23 08:05:00,9.0,-4.3,30.06,WSW,254,5.0,9.0,54,0.00,CLR,FEW,0.00,WeatherDisplay:10.37,2013-01-23 13:05:00,
2013-01-23 08:10:00,9.1,-4.2,30.06,WSW,247,5.0,5.0,54,0.00,CLR,FEW,0.00,WeatherDisplay:10.37,2013-01-23 13:10:00,
2013-01-23 08:15:00,9.2,-4.1,30.06,WSW,248,6.9,6.9,54,0.00,CLR,FEW,0.00,WeatherDisplay:10.37,2013-01-23 13:15:00,
2013-01-23 08:20:00,9.2,-4.1,30.06,WSW,248,7.0,12.0,54,0.00,CLR,FEW,0.00,WeatherDisplay:10.37,2013-01-23 13:20:00,
2013-01-23 08:25:00,9.4,-3.9,30.06,WSW,256,5.0,9.0,54,0.00,CLR,FEW,0.00,WeatherDisplay:10.37,2013-01-23 13:25:00,
2013-01-23 08:30:00,9.5,-3.8,30.06,WNW,284,9.2,9.2,54,0.00,CLR,FEW,0.00,WeatherDisplay:10.37,2013-01-23 13:30:00,
2013-01-23 08:35:00,9.5,-3.8,30.06,WNW,303,8.1,8.1,54,0.00,CLR,FEW,0.00,WeatherDisplay:10.37,2013-01-23 13:35:00,
2013-01-23 08:40:00,9.6,-3.7,30.06,WNW,284,8.1,8.1,54,0.00,CLR,FEW,0.00,WeatherDisplay:10.37,2013-01-23 13:40:00,
2013-01-23 08:45:00,9.6,-4.1,30.06,West,280,10.4,10.4,53,0.00,CLR,FEW,0.00,WeatherDisplay:10.37,2013-01-23 13:45:00,
2013-01-23 08:50:00,9.6,-4.5,30.06,WNW,302,13.8,13.8,52,0.00,CLR,FEW,0.00,WeatherDisplay:10.37,2013-01-23 13:50:00,
2013-01-23 08:55:00,9.6,-4.5,30.06,West,271,9.2,9.2,52,0.00,CLR,FEW,0.00,WeatherDisplay:10.37,2013-01-23 13:55:00,
2013-01-23 09:00:00,9.9,-4.2,30.07,WNW,284,6.9,6.9,52,0.00,CLR,FEW,0.00,WeatherDisplay:10.37,2013-01-23 14:00:00,
2013-01-23 09:05:00,10.2,-4.0,30.06,West,268,11.5,11.5,52,0.00,CLR,FEW,0.00,WeatherDisplay:10.37,2013-01-23 14:05:00,
2013-01-23 09:10:00,10.6,-3.2,30.06,West,279,8.1,8.1,53,0.00,CLR,FEW,0.00,WeatherDisplay:10.37,2013-01-23 14:10:00,
2013-01-23 09:15:00,10.8,-3.4,30.06,WNW,291,9.2,9.2,52,0.00,CLR,FEW,0.00,WeatherDisplay:10.37,2013-01-23 14:15:00,
2013-01-23 09:20:00,11.0,-3.2,30.06,WSW,250,8.1,8.1,52,0.00,CLR,FEW,0.00,WeatherDisplay:10.37,2013-01-23 14:20:00,
2013-01-23 09:25:00,11.0,-3.6,30.06,WSW,258,10.4,10.4,51,0.00,CLR,FEW,0.00,WeatherDisplay:10.37,2013-01-23 14:25:00,
2013-01-23 09:30:00,11.0,-4.0,30.06,WNW,296,7.0,7.0,50,0.00,CLR,FEW,0.00,WeatherDisplay:10.37,2013-01-23 14:30:00,
2013-01-23 09:35:00,11.3,-3.8,30.06,NW,308,12.7,12.7,50,0.00,CLR,FEW,0.00,WeatherDisplay:10.37,2013-01-23 14:35:00,
2013-01-23 09:40:00,11.2,-4.3,30.06,West,273,11.5,11.5,49,0.00,CLR,FEW,0.00,WeatherDisplay:10.37,2013-01-23 14:40:00,
2013-01-23 09:45:00,11.7,-3.4,30.06,West,267,8.1,8.1,50,0.00,CLR,FEW,0.00,WeatherDisplay:10.37,2013-01-23 14:45:00,
2013-01-23 09:50:00,12.1,-3.4,30.06,West,273,10.4,10.4,49,0.00,CLR,FEW,0.00,WeatherDisplay:10.37,2013-01-23 14:50:00,
2013-01-23 09:55:00,12.5,-3.1,30.06,WNW,300,13.0,13.0,49,0.00,CLR,FEW,0.00,WeatherDisplay:10.37,2013-01-23 14:55:00,
2013-01-23 10:00:00,12.8,-3.7,30.07,WNW,282,19.6,19.6,47,0.00,CLR,FEW,0.00,WeatherDisplay:10.37,2013-01-23 15:00:00,
2013-01-23 10:05:00,12.3,-4.6,30.06,WNW,286,15.0,15.0,46,0.00,CLR,FEW,0.00,WeatherDisplay:10.37,2013-01-23 15:05:00,
2013-01-23 10:10:00,12.5,-3.9,30.07,West,264,16.1,16.1,47,0.00,CLR,FEW,0.00,WeatherDisplay:10.37,2013-01-23 15:10:00,
2013-01-23 10:15:00,12.9,-4.0,30.06,WSW,251,10.0,10.0,46,0.00,CLR,FEW,0.00,WeatherDisplay:10.37,2013-01-23 15:15:00,
2013-01-23 10:20:00,12.8,-4.6,30.06,WNW,298,10.4,10.4,45,0.00,CLR,FEW,0.00,WeatherDisplay:10.37,2013-01-23 15:20:00,
2013-01-23 10:25:00,12.6,-5.2,30.06,WNW,293,10.4,10.4,44,0.00,CLR,FEW,0.00,WeatherDisplay:10.37,2013-01-23 15:25:00,
2013-01-23 10:30:00,12.8,-5.5,30.06,West,271,15.0,15.0,43,0.00,CLR,FEW,0.00,WeatherDisplay:10.37,2013-01-23 15:30:00,
2013-01-23 10:35:00,12.8,-6.0,30.06,West,272,12.7,12.7,42,0.00,CLR,FEW,0.00,WeatherDisplay:10.37,2013-01-23 15:35:00,
2013-01-23 10:40:00,12.7,-6.6,30.05,NW,309,16.1,16.1,41,0.00,CLR,FEW,0.00,WeatherDisplay:10.37,2013-01-23 15:40:00,
2013-01-23 10:45:00,13.0,-5.3,30.06,West,276,11.5,11.5,43,0.00,CLR,FEW,0.00,WeatherDisplay:10.37,2013-01-23 15:45:00,
2013-01-23 10:50:00,13.0,-6.3,30.05,WNW,294,9.2,9.2,41,0.00,CLR,FEW,0.00,WeatherDisplay:10.37,2013-01-23 15:50:00,
2013-01-23 10:55:00,12.8,-6.5,30.05,WNW,300,16.1,16.1,41,0.00,CLR,FEW,0.00,WeatherDisplay:10.37,2013-01-23 15:55:00,
2013-01-23 11:00:00,13.2,-6.1,30.05,WNW,282,18.4,18.4,41,0.00,CLR,FEW,0.00,WeatherDisplay:10.37,2013-01-23 16:00:00,
2013-01-23 11:05:00,13.4,-6.0,30.04,West,267,11.5,11.5,41,0.00,CLR,FEW,0.00,WeatherDisplay:10.37,2013-01-23 16:05:00,
2013-01-23 11:10:00,13.8,-5.6,30.04,WNW,303,11.5,11.5,41,0.00,CLR,FEW,0.00,WeatherDisplay:10.37,2013-01-23 16:10:00,
2013-01-23 11:15:00,13.6,-6.3,30.04,NW,317,11.5,11.5,40,0.00,CLR,FEW,0.00,WeatherDisplay:10.37,2013-01-23 16:15:00,
2013-01-23 11:20:00,13.8,-5.6,30.03,NW,317,15.0,15.0,41,0.00,CLR,FEW,0.00,WeatherDisplay:10.37,2013-01-23 16:20:00,
2013-01-23 11:25:00,13.6,-5.8,30.03,West,267,11.5,11.5,41,0.00,CLR,FEW,0.00,WeatherDisplay:10.37,2013-01-23 16:25:00,
2013-01-23 11:30:00,13.7,-5.7,30.03,NW,305,4.6,4.6,41,0.00,CLR,FEW,0.00,WeatherDisplay:10.37,2013-01-23 16:30:00,
2013-01-23 11:35:00,14.1,-5.3,30.02,NW,305,10.4,10.4,41,0.00,CLR,FEW,0.00,WeatherDisplay:10.37,2013-01-23 16:35:00,
2013-01-23 11:40:00,14.3,-4.6,30.02,West,273,9.2,9.2,42,0.00,CLR,FEW,0.00,WeatherDisplay:10.37,2013-01-23 16:40:00,
2013-01-23 11:45:00,14.4,-5.1,30.02,West,274,19.6,19.6,41,0.00,CLR,FEW,0.00,WeatherDisplay:10.37,2013-01-23 16:45:00,
2013-01-23 11:50:00,14.3,-5.1,30.01,West,265,18.4,18.4,41,0.00,CLR,FEW,0.00,WeatherDisplay:10.37,2013-01-23 16:50:00,
2013-01-23 11:55:00,14.5,-4.5,30.01,WNW,286,13.8,13.8,42,0.00,CLR,FEW,0.00,WeatherDisplay:10.37,2013-01-23 16:55:00,
2013-01-23 12:00:00,14.1,-5.3,30.01,WSW,242,8.1,8.1,41,0.00,CLR,FEW,0.00,WeatherDisplay:10.37,2013-01-23 17:00:00,
2013-01-23 12:05:00,14.5,-5.0,30.01,NW,309,18.0,18.0,41,0.00,CLR,FEW,0.00,WeatherDisplay:10.37,2013-01-23 17:05:00,
2013-01-23 12:10:00,14.6,-4.9,30.00,WNW,300,9.2,9.2,41,0.00,CLR,FEW,0.00,WeatherDisplay:10.37,2013-01-23 17:10:00,
2013-01-23 12:15:00,14.6,-4.4,30.00,West,264,11.5,11.5,42,0.00,CLR,FEW,0.00,WeatherDisplay:10.37,2013-01-23 17:15:00,
2013-01-23 12:20:00,15.1,-3.9,30.00,WNW,299,16.1,16.1,42,0.00,CLR,FEW,0.00,WeatherDisplay:10.37,2013-01-23 17:20:00,
2013-01-23 12:25:00,15.3,-3.7,30.00,WNW,301,7.0,7.0,42,0.00,CLR,FEW,0.00,WeatherDisplay:10.37,2013-01-23 17:25:00,
2013-01-23 12:30:00,15.5,-4.1,29.99,WNW,296,15.0,15.0,41,0.00,CLR,FEW,0.00,WeatherDisplay:10.37,2013-01-23 17:30:00,
2013-01-23 12:35:00,15.3,-4.8,29.99,WNW,296,15.0,15.0,40,0.00,CLR,FEW,0.00,WeatherDisplay:10.37,2013-01-23 17:35:00,
2013-01-23 12:40:00,15.4,-4.1,29.99,West,266,18.4,18.4,41,0.00,CLR,FEW,0.00,WeatherDisplay:10.37,2013-01-23 17:40:00,
2013-01-23 12:45:00,15.6,-4.5,29.99,SW,233,11.5,11.5,40,0.00,CLR,FEW,0.00,WeatherDisplay:10.37,2013-01-23 17:45:00,
2013-01-23 12:50:00,16.5,-3.1,29.99,WNW,287,10.4,10.4,41,0.00,CLR,FEW,0.00,WeatherDisplay:10.37,2013-01-23 17:50:00,
2013-01-23 12:55:00,16.5,-3.7,29.99,WNW,282,13.0,13.0,40,0.00,CLR,FEW,0.00,WeatherDisplay:10.37,2013-01-23 17:55:00,
2013-01-23 13:00:00,16.0,-4.6,29.98,SW,233,23.0,23.0,39,0.00,CLR,FEW,0.00,WeatherDisplay:10.37,2013-01-23 18:00:00,
2013-01-23 13:05:00,15.8,-5.4,29.98,SW,234,17.3,17.3,38,0.00,CLR,FEW,0.00,WeatherDisplay:10.37,2013-01-23 18:05:00,
2013-01-23 13:10:00,16.1,-4.6,29.98,WNW,292,11.5,11.5,39,0.00,CLR,FEW,0.00,WeatherDisplay:10.37,2013-01-23 18:10:00,
2013-01-23 13:15:00,16.2,-5.0,29.97,WSW,253,11.0,11.0,38,0.00,CLR,FEW,0.00,WeatherDisplay:10.37,2013-01-23 18:15:00,
2013-01-23 13:20:00,16.4,-4.3,29.98,SW,235,11.5,11.5,39,0.00,CLR,FEW,0.00,WeatherDisplay:10.37,2013-01-23 18:20:00,
2013-01-23 13:25:00,16.7,-3.5,29.97,WSW,253,11.5,11.5,40,0.00,CLR,FEW,0.00,WeatherDisplay:10.37,2013-01-23 18:25:00,
2013-01-23 13:30:00,16.5,-4.2,29.97,WNW,300,18.0,18.0,39,0.00,CLR,FEW,0.00,WeatherDisplay:10.37,2013-01-23 18:30:00,
2013-01-23 13:35:00,15.9,-5.8,29.97,West,273,15.0,15.0,37,0.00,CLR,FEW,0.00,WeatherDisplay:10.37,2013-01-23 18:35:00,
2013-01-23 13:40:00,15.8,-5.9,29.97,WNW,287,8.1,8.1,37,0.00,CLR,FEW,0.00,WeatherDisplay:10.37,2013-01-23 18:40:00,
2013-01-23 13:45:00,16.0,-5.7,29.97,West,269,13.8,13.8,37,0.00,CLR,FEW,0.00,WeatherDisplay:10.37,2013-01-23 18:45:00,
2013-01-23 13:50:00,16.3,-4.9,29.97,NW,315,12.0,12.0,38,0.00,CLR,FEW,0.00,WeatherDisplay:10.37,2013-01-23 18:50:00,
2013-01-23 13:55:00,16.3,-4.9,29.97,WNW,294,12.7,12.7,38,0.00,CLR,FEW,0.00,WeatherDisplay:10.37,2013-01-23 18:55:00,
2013-01-23 14:00:00,16.4,-4.8,29.97,NW,304,18.0,18.0,38,0.00,CLR,FEW,0.00,WeatherDisplay:10.37,2013-01-23 19:00:00,
2013-01-23 14:05:00,16.0,-6.9,29.97,NW,312,19.0,19.0,35,0.00,CLR,FEW,0.00,WeatherDisplay:10.37,2013-01-23 19:05:00,
2013-01-23 14:10:00,15.8,-5.9,29.97,WNW,284,12.7,12.7,37,0.00,CLR,FEW,0.00,WeatherDisplay:10.37,2013-01-23 19:10:00,
2013-01-23 14:15:00,16.1,-5.6,29.97,West,281,8.1,8.1,37,0.00,CLR,FEW,0.00,WeatherDisplay:10.37,2013-01-23 19:15:00,
2013-01-23 14:20:00,15.8,-5.9,29.97,WNW,298,11.5,11.5,37,0.00,CLR,FEW,0.00,WeatherDisplay:10.37,2013-01-23 19:20:00,
2013-01-23 14:25:00,15.7,-5.5,29.97,WNW,287,16.1,16.1,38,0.00,CLR,FEW,0.00,WeatherDisplay:10.37,2013-01-23 19:25:00,
2013-01-23 14:30:00,16.0,-4.6,29.97,West,274,9.2,9.2,39,0.00,CLR,FEW,0.00,WeatherDisplay:10.37,2013-01-23 19:30:00,
2013-01-23 14:35:00,16.1,-4.6,29.96,West,272,14.0,14.0,39,0.00,CLR,FEW,0.00,WeatherDisplay:10.37,2013-01-23 19:35:00,
2013-01-23 14:40:00,16.6,-4.1,29.97,NW,309,12.0,12.0,39,0.00,CLR,FEW,0.00,WeatherDisplay:10.37,2013-01-23 19:40:00,
2013-01-23 14:45:00,16.8,-4.5,29.96,NW,319,9.2,9.2,38,0.00,CLR,FEW,0.00,WeatherDisplay:10.37,2013-01-23 19:45:00,
2013-01-23 14:50:00,16.9,-4.4,29.97,WNW,293,9.2,9.2,38,0.00,CLR,FEW,0.00,WeatherDisplay:10.37,2013-01-23 19:50:00,
2013-01-23 14:55:00,16.8,-4.5,29.97,North,2,9.2,9.2,38,0.00,CLR,FEW,0.00,WeatherDisplay:10.37,2013-01-23 19:55:00,
2013-01-23 15:00:00,17.0,-4.3,29.97,NNW,332,13.8,13.8,38,0.00,CLR,FEW,0.00,WeatherDisplay:10.37,2013-01-23 20:00:00,
2013-01-23 15:05:00,16.7,-4.6,29.97,NNW,331,9.2,9.2,38,0.00,CLR,FEW,0.00,WeatherDisplay:10.37,2013-01-23 20:05:00,
2013-01-23 15:10:00,16.9,-3.8,29.97,WNW,299,10.4,10.4,39,0.00,CLR,FEW,0.00,WeatherDisplay:10.37,2013-01-23 20:10:00,
2013-01-23 15:15:00,17.3,-4.6,29.97,West,262,20.7,20.7,37,0.00,CLR,FEW,0.00,WeatherDisplay:10.37,2013-01-23 20:15:00,
2013-01-23 15:20:00,16.9,-4.9,29.97,WSW,247,16.1,16.1,37,0.00,CLR,FEW,0.00,WeatherDisplay:10.37,2013-01-23 20:20:00,
2013-01-23 15:25:00,16.8,-3.9,29.97,WSW,257,19.6,19.6,39,0.00,CLR,FEW,0.00,WeatherDisplay:10.37,2013-01-23 20:25:00,
2013-01-23 15:30:00,16.8,-3.9,29.98,West,278,12.0,12.0,39,0.00,CLR,FEW,0.00,WeatherDisplay:10.37,2013-01-23 20:30:00,
2013-01-23 15:35:00,16.8,-3.9,29.97,NW,318,12.0,12.0,39,0.00,CLR,FEW,0.00,WeatherDisplay:10.37,2013-01-23 20:35:00,
2013-01-23 15:40:00,16.5,-5.9,29.98,West,275,12.7,12.7,36,0.00,CLR,FEW,0.00,WeatherDisplay:10.37,2013-01-23 20:40:00,
2013-01-23 15:45:00,16.6,-5.8,29.97,WNW,298,13.8,13.8,36,0.00,CLR,FEW,0.00,WeatherDisplay:10.37,2013-01-23 20:45:00,
2013-01-23 15:50:00,16.6,-5.2,29.97,West,279,11.5,11.5,37,0.00,CLR,FEW,0.00,WeatherDisplay:10.37,2013-01-23 20:50:00,
2013-01-23 15:55:00,16.5,-5.3,29.97,NW,314,11.5,11.5,37,0.00,CLR,FEW,0.00,WeatherDisplay:10.37,2013-01-23 20:55:00,
2013-01-23 16:00:00,16.4,-5.4,29.96,NW,308,6.9,6.9,37,0.00,CLR,FEW,0.00,WeatherDisplay:10.37,2013-01-23 21:00:00,
2013-01-23 16:05:00,16.4,-4.8,29.97,North,352,8.1,8.1,38,0.00,CLR,FEW,0.00,WeatherDisplay:10.37,2013-01-23 21:05:00,
2013-01-23 16:10:00,16.6,-4.1,29.97,NW,317,9.2,9.2,39,0.00,CLR,FEW,0.00,WeatherDisplay:10.37,2013-01-23 21:10:00,
2013-01-23 16:15:00,16.8,-3.9,29.97,WNW,286,6.0,6.0,39,0.00,CLR,FEW,0.00,WeatherDisplay:10.37,2013-01-23 21:15:00,
2013-01-23 16:20:00,16.7,-4.6,29.97,West,273,10.4,10.4,38,0.00,CLR,FEW,0.00,WeatherDisplay:10.37,2013-01-23 21:20:00,
2013-01-23 16:25:00,16.7,-4.0,29.97,WSW,244,9.2,9.2,39,0.00,CLR,FEW,0.00,WeatherDisplay:10.37,2013-01-23 21:25:00,
2013-01-23 16:30:00,16.9,-2.8,29.98,West,275,13.0,13.0,41,0.00,CLR,FEW,0.00,WeatherDisplay:10.37,2013-01-23 21:30:00,
2013-01-23 16:35:00,16.7,-3.5,29.98,WNW,287,15.0,15.0,40,0.00,CLR,FEW,0.00,WeatherDisplay:10.37,2013-01-23 21:35:00,
2013-01-23 16:40:00,16.5,-3.1,29.98,WNW,284,8.1,8.1,41,0.00,CLR,FEW,0.00,WeatherDisplay:10.37,2013-01-23 21:40:00,
2013-01-23 16:45:00,16.3,-3.3,29.98,WNW,283,8.1,8.1,41,0.00,CLR,FEW,0.00,WeatherDisplay:10.37,2013-01-23 21:45:00,
2013-01-23 16:50:00,16.0,-4.1,29.98,WSW,255,10.4,10.4,40,0.00,CLR,FEW,0.00,WeatherDisplay:10.37,2013-01-23 21:50:00,
2013-01-23 16:55:00,16.0,-3.6,29.98,WNW,296,8.1,8.1,41,0.00,CLR,FEW,0.00,WeatherDisplay:10.37,2013-01-23 21:55:00,
2013-01-23 17:00:00,15.9,-3.7,29.98,West,278,11.5,11.5,41,0.00,CLR,FEW,0.00,WeatherDisplay:10.37,2013-01-23 22:00:00,
2013-01-23 17:05:00,15.7,-3.9,29.98,WNW,286,12.7,12.7,41,0.00,CLR,FEW,0.00,WeatherDisplay:10.37,2013-01-23 22:05:00,
2013-01-23 17:10:00,15.5,-4.6,29.99,WNW,290,12.0,12.0,40,0.00,CLR,FEW,0.00,WeatherDisplay:10.37,2013-01-23 22:10:00,
2013-01-23 17:15:00,15.4,-4.1,29.99,WNW,300,11.5,11.5,41,0.00,CLR,FEW,0.00,WeatherDisplay:10.37,2013-01-23 22:15:00,
2013-01-23 17:20:00,15.3,-4.2,29.99,NW,314,6.9,6.9,41,0.00,CLR,FEW,0.00,WeatherDisplay:10.37,2013-01-23 22:20:00,
2013-01-23 17:25:00,15.2,-4.3,29.99,NW,306,11.5,11.5,41,0.00,CLR,FEW,0.00,WeatherDisplay:10.37,2013-01-23 22:25:00,
2013-01-23 17:30:00,15.0,-4.0,29.99,NW,307,4.6,4.6,42,0.00,CLR,FEW,0.00,WeatherDisplay:10.37,2013-01-23 22:30:00,
2013-01-23 17:35:00,15.0,-3.5,29.99,NW,319,8.1,8.1,43,0.00,CLR,FEW,0.00,WeatherDisplay:10.37,2013-01-23 22:35:00,
2013-01-23 17:40:00,14.9,-3.6,29.99,NW,310,5.8,5.8,43,0.00,CLR,FEW,0.00,WeatherDisplay:10.37,2013-01-23 22:40:00,
2013-01-23 17:45:00,14.9,-3.6,30.00,NW,311,4.6,4.6,43,0.00,CLR,FEW,0.00,WeatherDisplay:10.37,2013-01-23 22:45:00,
2013-01-23 17:50:00,14.9,-3.1,30.00,NW,309,4.6,4.6,44,0.00,CLR,FEW,0.00,WeatherDisplay:10.37,2013-01-23 22:50:00,
2013-01-23 17:55:00,14.8,-3.2,30.00,WNW,300,4.6,4.6,44,0.00,CLR,FEW,0.00,WeatherDisplay:10.37,2013-01-23 22:55:00,
2013-01-23 18:00:00,14.8,-3.2,30.00,WNW,299,3.5,3.5,44,0.00,CLR,FEW,0.00,WeatherDisplay:10.37,2013-01-23 23:00:00,
2013-01-23 18:05:00,15.0,-2.6,30.01,WNW,289,4.0,4.0,45,0.00,CLR,FEW,0.00,WeatherDisplay:10.37,2013-01-23 23:05:00,
2013-01-23 18:10:00,15.0,-2.6,30.00,West,270,6.9,6.9,45,0.00,CLR,FEW,0.00,WeatherDisplay:10.37,2013-01-23 23:10:00,
2013-01-23 18:15:00,15.1,-2.0,30.01,WSW,258,8.1,8.1,46,0.00,CLR,FEW,0.00,WeatherDisplay:10.37,2013-01-23 23:15:00,
2013-01-23 18:20:00,15.4,-1.7,30.01,West,271,8.0,8.0,46,0.00,CLR,FEW,0.00,WeatherDisplay:10.37,2013-01-23 23:20:00,
2013-01-23 18:25:00,15.1,-2.5,30.01,WNW,295,5.8,5.8,45,0.00,CLR,FEW,0.00,WeatherDisplay:10.37,2013-01-23 23:25:00,
2013-01-23 18:30:00,15.0,-2.6,30.01,WNW,293,3.5,3.5,45,0.00,CLR,FEW,0.00,WeatherDisplay:10.37,2013-01-23 23:30:00,
2013-01-23 18:35:00,15.1,-2.0,30.01,West,275,4.6,4.6,46,0.00,CLR,FEW,0.00,WeatherDisplay:10.37,2013-01-23 23:35:00,
2013-01-23 18:40:00,14.9,-2.2,30.02,WNW,285,8.1,8.1,46,0.00,CLR,FEW,0.00,WeatherDisplay:10.37,2013-01-23 23:40:00,
2013-01-23 18:45:00,15.1,-2.0,30.02,West,273,4.0,4.0,46,0.00,CLR,FEW,0.00,WeatherDisplay:10.37,2013-01-23 23:45:00,
2013-01-23 18:50:00,15.1,-2.0,30.02,WNW,285,4.6,4.6,46,0.00,CLR,FEW,0.00,WeatherDisplay:10.37,2013-01-23 23:50:00,
2013-01-23 18:55:00,15.1,-1.5,30.02,West,278,4.6,4.6,47,0.00,CLR,FEW,0.00,WeatherDisplay:10.37,2013-01-23 23:55:00,
2013-01-23 19:00:00,14.8,-2.3,30.01,West,279,8.1,8.1,46,0.00,CLR,FEW,0.00,WeatherDisplay:10.37,2013-01-24 00:00:00,
2013-01-23 19:05:00,15.1,-1.1,30.02,West,268,5.8,5.8,48,0.00,CLR,FEW,0.00,WeatherDisplay:10.37,2013-01-24 00:05:00,
2013-01-23 19:10:00,15.0,-1.2,30.02,WNW,283,4.6,4.6,48,0.00,CLR,FEW,0.00,WeatherDisplay:10.37,2013-01-24 00:10:00,
2013-01-23 19:15:00,15.0,-1.2,30.02,West,266,6.9,6.9,48,0.00,CLR,FEW,0.00,WeatherDisplay:10.37,2013-01-24 00:15:00,
2013-01-23 19:20:00,15.0,-1.2,30.02,West,272,4.6,4.6,48,0.00,CLR,FEW,0.00,WeatherDisplay:10.37,2013-01-24 00:20:00,
2013-01-23 19:25:00,14.8,-1.4,30.02,West,269,3.5,3.5,48,0.00,CLR,FEW,0.00,WeatherDisplay:10.37,2013-01-24 00:25:00,
2013-01-23 19:30:00,14.6,-2.0,30.02,WNW,289,4.6,4.6,47,0.00,CLR,FEW,0.00,WeatherDisplay:10.37,2013-01-24 00:30:00,
2013-01-23 19:35:00,14.5,-2.1,30.02,WNW,290,3.5,3.5,47,0.00,CLR,FEW,0.00,WeatherDisplay:10.37,2013-01-24 00:35:00,
2013-01-23 19:40:00,14.4,-1.7,30.02,WNW,290,2.3,2.3,48,0.00,CLR,FEW,0.00,WeatherDisplay:10.37,2013-01-24 00:40:00,
2013-01-23 19:45:00,14.3,-1.8,30.02,West,268,3.5,3.5,48,0.00,CLR,FEW,0.00,WeatherDisplay:10.37,2013-01-24 00:45:00,
2013-01-23 19:50:00,14.2,-1.9,30.03,West,268,1.1,1.1,48,0.00,CLR,FEW,0.00,WeatherDisplay:10.37,2013-01-24 00:50:00,
2013-01-23 19:55:00,14.1,-2.0,30.02,West,266,3.5,3.5,48,0.00,CLR,FEW,0.00,WeatherDisplay:10.37,2013-01-24 00:55:00,
2013-01-23 20:00:00,13.8,-2.3,30.02,West,263,3.5,3.5,48,0.00,CLR,FEW,0.00,WeatherDisplay:10.37,2013-01-24 01:00:00,
2013-01-23 20:05:00,13.9,-1.8,30.02,West,262,3.5,3.5,49,0.00,CLR,FEW,0.00,WeatherDisplay:10.37,2013-01-24 01:05:00,
2013-01-23 20:10:00,13.8,-1.4,30.02,WSW,257,3.5,3.5,50,0.00,CLR,FEW,0.00,WeatherDisplay:10.37,2013-01-24 01:10:00,
2013-01-23 20:15:00,13.8,-1.4,30.02,WSW,248,2.3,2.3,50,0.00,CLR,FEW,0.00,WeatherDisplay:10.37,2013-01-24 01:15:00,
2013-01-23 20:20:00,13.7,-1.5,30.03,WSW,247,3.5,3.5,50,0.00,CLR,FEW,0.00,WeatherDisplay:10.37,2013-01-24 01:20:00,
2013-01-23 20:25:00,13.6,-1.6,30.03,WSW,239,4.0,4.0,50,0.00,CLR,FEW,0.00,WeatherDisplay:10.37,2013-01-24 01:25:00,
2013-01-23 20:30:00,13.6,-1.6,30.02,WSW,239,3.0,3.0,50,0.00,CLR,FEW,0.00,WeatherDisplay:10.37,2013-01-24 01:30:00,
2013-01-23 20:35:00,13.5,-1.3,30.02,WSW,239,2.3,2.3,51,0.00,CLR,FEW,0.00,WeatherDisplay:10.37,2013-01-24 01:35:00,
2013-01-23 20:40:00,13.4,-1.4,30.02,WSW,239,2.3,2.3,51,0.00,CLR,FEW,0.00,WeatherDisplay:10.37,2013-01-24 01:40:00,
2013-01-23 20:45:00,13.4,-1.4,30.02,WSW,239,1.1,0.0,51,0.00,CLR,FEW,0.00,WeatherDisplay:10.37,2013-01-24 01:45:00,
2013-01-23 20:50:00,13.2,-1.6,30.02,WSW,239,2.3,2.3,51,0.00,CLR,FEW,0.00,WeatherDisplay:10.37,2013-01-24 01:50:00,
2013-01-23 20:55:00,13.1,-1.7,30.02,WSW,239,2.3,2.3,51,0.00,CLR,FEW,0.00,WeatherDisplay:10.37,2013-01-24 01:55:00,
2013-01-23 21:00:00,12.9,-1.9,30.02,WSW,239,3.5,3.5,51,0.00,CLR,FEW,0.00,WeatherDisplay:10.37,2013-01-24 02:00:00,
2013-01-23 21:05:00,13.0,-1.8,30.02,WSW,239,3.5,3.5,51,0.00,CLR,FEW,0.00,WeatherDisplay:10.37,2013-01-24 02:05:00,
2013-01-23 21:10:00,12.9,-1.9,30.02,WSW,239,3.5,3.5,51,0.00,CLR,FEW,0.00,WeatherDisplay:10.37,2013-01-24 02:10:00,
2013-01-23 21:15:00,12.9,-1.9,30.03,WSW,239,3.5,3.5,51,0.00,CLR,FEW,0.00,WeatherDisplay:10.37,2013-01-24 02:15:00,
2013-01-23 21:20:00,12.8,-1.9,30.03,WSW,239,3.5,3.5,51,0.00,CLR,FEW,0.00,WeatherDisplay:10.37,2013-01-24 02:20:00,
2013-01-23 21:25:00,12.6,-1.7,30.03,WSW,239,3.5,3.5,52,0.00,CLR,FEW,0.00,WeatherDisplay:10.37,2013-01-24 02:25:00,
2013-01-23 21:30:00,12.5,-1.8,30.03,WSW,238,3.5,3.5,52,0.00,CLR,FEW,0.00,WeatherDisplay:10.37,2013-01-24 02:30:00,
2013-01-23 21:35:00,12.5,-1.8,30.03,WSW,240,3.5,3.5,52,0.00,CLR,FEW,0.00,WeatherDisplay:10.37,2013-01-24 02:35:00,
2013-01-23 21:40:00,12.5,-1.8,30.03,WSW,240,2.3,2.3,52,0.00,CLR,FEW,0.00,WeatherDisplay:10.37,2013-01-24 02:40:00,
2013-01-23 21:45:00,12.4,-1.5,30.03,WSW,240,3.5,3.5,53,0.00,CLR,FEW,0.00,WeatherDisplay:10.37,2013-01-24 02:45:00,
2013-01-23 21:50:00,12.5,-1.4,30.03,WSW,240,4.0,4.0,53,0.00,CLR,FEW,0.00,WeatherDisplay:10.37,2013-01-24 02:50:00,
2013-01-23 21:55:00,12.5,-1.4,30.03,WSW,240,3.5,3.5,53,0.00,CLR,FEW,0.00,WeatherDisplay:10.37,2013-01-24 02:55:00,
2013-01-23 22:00:00,12.3,-1.2,30.03,WSW,240,2.3,2.3,54,0.00,CLR,FEW,0.00,WeatherDisplay:10.37,2013-01-24 03:00:00,
2013-01-23 22:05:00,12.3,-1.2,30.03,WSW,240,2.3,2.3,54,0.00,CLR,FEW,0.00,WeatherDisplay:10.37,2013-01-24 03:05:00,
2013-01-23 22:10:00,12.2,-1.3,30.03,WSW,243,3.5,3.5,54,0.00,CLR,FEW,0.00,WeatherDisplay:10.37,2013-01-24 03:10:00,
2013-01-23 22:15:00,12.2,-0.9,30.03,WSW,243,3.5,3.5,55,0.00,CLR,FEW,0.00,WeatherDisplay:10.37,2013-01-24 03:15:00,
2013-01-23 22:20:00,12.1,-1.0,30.04,WSW,245,3.5,3.5,55,0.00,CLR,FEW,0.00,WeatherDisplay:10.37,2013-01-24 03:20:00,
2013-01-23 22:25:00,12.0,-1.1,30.03,WSW,246,3.5,3.5,55,0.00,CLR,FEW,0.00,WeatherDisplay:10.37,2013-01-24 03:25:00,
2013-01-23 22:30:00,12.0,-1.1,30.03,WSW,257,3.5,3.5,55,0.00,CLR,FEW,0.00,WeatherDisplay:10.37,2013-01-24 03:30:00,
2013-01-23 22:35:00,12.0,-1.1,30.04,West,260,3.5,3.5,55,0.00,CLR,FEW,0.00,WeatherDisplay:10.37,2013-01-24 03:35:00,
2013-01-23 22:40:00,12.0,-1.1,30.03,West,262,3.5,3.5,55,0.00,CLR,FEW,0.00,WeatherDisplay:10.37,2013-01-24 03:40:00,
2013-01-23 22:45:00,12.0,-1.1,30.04,West,263,1.1,1.1,55,0.00,CLR,FEW,0.00,WeatherDisplay:10.37,2013-01-24 03:45:00,
2013-01-23 22:50:00,12.0,-1.1,30.03,West,263,3.5,3.5,55,0.00,CLR,FEW,0.00,WeatherDisplay:10.37,2013-01-24 03:50:00,
2013-01-23 22:55:00,12.1,-1.0,30.03,West,259,4.0,4.0,55,0.00,CLR,FEW,0.00,WeatherDisplay:10.37,2013-01-24 03:55:00,
2013-01-23 23:00:00,11.9,-1.2,30.03,West,261,3.5,3.5,55,0.00,CLR,FEW,0.00,WeatherDisplay:10.37,2013-01-24 04:00:00,
2013-01-23 23:05:00,12.1,-1.0,30.03,WSW,257,1.1,1.1,55,0.00,CLR,FEW,0.00,WeatherDisplay:10.37,2013-01-24 04:05:00,
2013-01-23 23:10:00,11.9,-1.2,30.04,WSW,257,3.5,3.5,55,0.00,CLR,FEW,0.00,WeatherDisplay:10.37,2013-01-24 04:10:00,
2013-01-23 23:15:00,11.7,-1.4,30.04,WSW,248,4.0,4.0,55,0.00,CLR,FEW,0.00,WeatherDisplay:10.37,2013-01-24 04:15:00,
2013-01-23 23:20:00,11.7,-1.4,30.04,WSW,249,3.5,3.5,55,0.00,CLR,FEW,0.00,WeatherDisplay:10.37,2013-01-24 04:20:00,
2013-01-23 23:25:00,11.6,-1.5,30.03,WSW,247,3.5,3.5,55,0.00,CLR,FEW,0.00,WeatherDisplay:10.37,2013-01-24 04:25:00,
2013-01-23 23:30:00,11.7,-1.4,30.03,WSW,249,1.1,1.1,55,0.00,CLR,FEW,0.00,WeatherDisplay:10.37,2013-01-24 04:30:00,
2013-01-23 23:35:00,11.6,-1.1,30.04,WSW,251,3.5,3.5,56,0.00,CLR,FEW,0.00,WeatherDisplay:10.37,2013-01-24 04:35:00,
2013-01-23 23:40:00,11.6,-1.1,30.03,WSW,251,1.1,1.1,56,0.00,CLR,FEW,0.00,WeatherDisplay:10.37,2013-01-24 04:40:00,
2013-01-23 23:45:00,11.5,-1.2,30.03,WSW,252,3.5,3.5,56,0.00,CLR,FEW,0.00,WeatherDisplay:10.37,2013-01-24 04:45:00,
2013-01-23 23:50:00,11.4,-1.3,30.03,WSW,254,2.3,2.3,56,0.00,CLR,FEW,0.00,WeatherDisplay:10.37,2013-01-24 04:50:00,
2013-01-23 23:55:00,11.3,-1.4,30.03,WSW,252,2.3,2.3,56,0.00,CLR,FEW,0.00,WeatherDisplay:10.37,2013-01-24 04:55:00,